South St. Paul, MN

10:51 AM CDT on October 18, 2017 (GMT -0500)
South Saint Paul Municipal-Fleming

Weather History for KSGS - October, 2012

Change the Weather History Date:

Monday, October 1, 2012

  Actual Average (KSTP) Record (KSTP)
Temperature  
Mean Temperature 60 °F -  
Max Temperature 69 °F 63 °F 82 °F (2005)
Min Temperature 50 °F 41 °F 30 °F (2003)
Degree Days  
Heating Degree Days 6    
Growing Degree Days 10 (Base 50)    
Moisture  
Dew Point 43 °F    
Average Humidity 52    
Maximum Humidity 72    
Minimum Humidity 36    
Precipitation  
Precipitation 0.00 in - - ()
Sea Level Pressure  
Sea Level Pressure 29.89 in    
Wind  
Wind Speed 5 mph (North)    
Max Wind Speed 16 mph    
Max Gust Speed 23 mph    
Visibility 10 miles    
Events      
Averages and records for this station are not official NWS values.
T = Trace of Precipitation, MM = Missing Value Source: NWS Daily Summary

Daily Weather History Graph

Daily Weather History Graph

Search for Another Location

Airport or City:

Trip Planner

Search our weather history database for the weather conditions in past years. The results will help you decide how hot, cold, wet, or windy it might be!

Date:

Astronomy

Oct. 01, 2012 Rise Set
Actual Time 7:10 AM CDT 6:51 PM CDT
Civil Twilight 6:41 AM CDT 7:20 PM CDT
Nautical Twilight 6:07 AM CDT 7:54 PM CDT
Astronomical Twilight 5:33 AM CDT 8:29 PM CDT
Moon 7:21 PM CDT (10/1) 8:47 AM CDT (10/1)
Length of Visible Light 12h 39m
Length of Day
11h 40m
Full, 98% of the Moon is Illuminated
Oct 1
Full
Oct 8
Last Quarter
Oct 15
New
Oct 21
First Quarter
Oct 29
Full

Hourly Weather History & Observations

Time (CDT) Temp. Dew Point Humidity Pressure Visibility Wind Dir Wind Speed Gust Speed Precip Events Conditions
12:12 AM 58.6 °F 38.3 °F 47% 29.89 in 10.0 mi Calm Calm - N/A   Clear
12:32 AM 57.2 °F 38.7 °F 50% 29.88 in 10.0 mi Calm Calm - N/A   Clear
12:52 AM 56.5 °F 38.5 °F 51% 29.88 in 10.0 mi Calm Calm - N/A   Clear
1:12 AM 57.0 °F 40.6 °F 54% 29.87 in 10.0 mi SSE 3.5 mph - N/A   Clear
1:32 AM 56.3 °F 39.7 °F 54% 29.87 in 10.0 mi Calm Calm - N/A   Clear
1:52 AM 55.6 °F 39.9 °F 56% 29.87 in 10.0 mi Calm Calm - N/A   Clear
2:12 AM 55.2 °F 41.9 °F 61% 29.86 in 10.0 mi Calm Calm - N/A   Clear
2:32 AM 54.7 °F 42.1 °F 62% 29.86 in 10.0 mi Calm Calm - N/A   Clear
3:12 AM 52.9 °F 40.6 °F 63% 29.84 in 10.0 mi Calm Calm - N/A   Clear
3:32 AM 54.5 °F 41.4 °F 61% 29.83 in 10.0 mi SSE 3.5 mph - N/A   Clear
3:52 AM 54.0 °F 41.9 °F 64% 29.83 in 10.0 mi SE 3.5 mph - N/A   Clear
4:12 AM 52.9 °F 41.7 °F 66% 29.84 in 10.0 mi Calm Calm - N/A   Clear
5:12 AM 50.9 °F 41.5 °F 70% 29.84 in 10.0 mi Calm Calm - N/A   Clear
5:32 AM 50.2 °F 41.5 °F 72% 29.84 in 10.0 mi Calm Calm - N/A   Clear
5:52 AM 50.2 °F 41.4 °F 72% 29.85 in 10.0 mi Calm Calm - N/A   Clear
6:12 AM 50.2 °F 41.5 °F 72% 29.85 in 10.0 mi Calm Calm - N/A   Clear
6:32 AM 50.0 °F 41.0 °F 71% 29.85 in 10.0 mi Calm Calm - N/A   Clear
6:52 AM 52.9 °F 42.3 °F 67% 29.86 in 10.0 mi NNW 9.2 mph - N/A   Clear
7:12 AM 57.6 °F 43.9 °F 60% 29.87 in 10.0 mi North 10.4 mph 16.1 mph N/A   Clear
7:32 AM 58.1 °F 44.6 °F 61% 29.87 in 10.0 mi North 6.9 mph - N/A   Clear
8:12 AM 58.1 °F 45.3 °F 62% 29.89 in 10.0 mi North 9.2 mph - N/A   Clear
8:32 AM 58.6 °F 45.5 °F 62% 29.90 in 10.0 mi North 5.8 mph - N/A   Clear
8:52 AM 59.9 °F 45.5 °F 59% 29.90 in 10.0 mi North 9.2 mph - N/A   Scattered Clouds
9:12 AM 60.8 °F 45.5 °F 57% 29.90 in 10.0 mi North 8.1 mph - N/A   Scattered Clouds
9:32 AM 61.7 °F 45.5 °F 55% 29.90 in 10.0 mi North 11.5 mph 16.1 mph N/A   Scattered Clouds
10:12 AM 62.6 °F 45.3 °F 53% 29.91 in 10.0 mi NNW 13.8 mph - N/A   Scattered Clouds
10:32 AM 62.6 °F 45.5 °F 54% 29.91 in 10.0 mi North 9.2 mph 17.3 mph N/A   Scattered Clouds
10:52 AM 61.7 °F 45.7 °F 56% 29.91 in 10.0 mi North 9.2 mph - N/A   Scattered Clouds
11:12 AM 64.4 °F 46.4 °F 52% 29.91 in 10.0 mi North 11.5 mph - N/A   Clear
11:32 AM 65.7 °F 45.7 °F 48% 29.91 in 10.0 mi North 12.7 mph - N/A   Clear
11:52 AM 65.7 °F 45.7 °F 48% 29.91 in 10.0 mi NNW 10.4 mph 18.4 mph N/A   Clear
12:12 PM 66.6 °F 46.0 °F 48% 29.90 in 10.0 mi NNW 11.5 mph - N/A   Clear
12:32 PM 66.4 °F 46.2 °F 48% 29.90 in 10.0 mi NNW 9.2 mph - N/A   Clear
12:52 PM 65.8 °F 46.4 °F 49% 29.90 in 10.0 mi NW 15.0 mph - N/A   Clear
1:12 PM 66.2 °F 46.2 °F 49% 29.91 in 10.0 mi NW 11.5 mph 18.4 mph N/A   Clear
1:32 PM 65.5 °F 46.2 °F 50% 29.90 in 10.0 mi NW 11.5 mph 19.6 mph N/A   Clear
1:52 PM 66.4 °F 46.8 °F 49% 29.90 in 10.0 mi NNW 16.1 mph 23.0 mph N/A   Clear
2:12 PM 66.6 °F 47.1 °F 50% 29.90 in 10.0 mi North 12.7 mph 20.7 mph N/A   Clear
2:52 PM 66.2 °F 47.7 °F 51% 29.90 in 10.0 mi North 9.2 mph 18.4 mph N/A   Clear
3:12 PM 66.2 °F 47.5 °F 51% 29.90 in 10.0 mi North 10.4 mph - N/A   Clear
3:32 PM 67.1 °F 47.8 °F 50% 29.90 in 10.0 mi North 9.2 mph 17.3 mph N/A   Clear
4:12 PM 68.9 °F 47.3 °F 46% 29.89 in 10.0 mi North 10.4 mph 17.3 mph N/A   Clear
4:32 PM 68.7 °F 45.9 °F 44% 29.90 in 10.0 mi North 8.1 mph - N/A   Clear
5:12 PM 69.8 °F 43.7 °F 39% 29.90 in 10.0 mi North 5.8 mph - N/A   Clear
5:32 PM 69.6 °F 43.7 °F 39% 29.90 in 10.0 mi North 4.6 mph - N/A   Clear
6:12 PM 69.1 °F 41.2 °F 36% 29.90 in 10.0 mi NNW 6.9 mph - N/A   Clear
6:32 PM 67.8 °F 41.4 °F 38% 29.90 in 10.0 mi North 9.2 mph - N/A   Clear
6:52 PM 67.3 °F 41.0 °F 38% 29.90 in 10.0 mi NNW 8.1 mph - N/A   Clear
7:12 PM 65.8 °F 40.3 °F 39% 29.91 in 10.0 mi North 8.1 mph - N/A   Clear
7:32 PM 64.6 °F 40.1 °F 41% 29.91 in 10.0 mi NNW 5.8 mph - N/A   Clear
7:52 PM 64.0 °F 39.2 °F 40% 29.92 in 10.0 mi NNW 8.1 mph - N/A   Clear
8:12 PM 64.2 °F 38.7 °F 39% 29.92 in 10.0 mi North 9.2 mph - N/A   Clear
8:32 PM 64.2 °F 38.7 °F 39% 29.92 in 10.0 mi North 11.5 mph 17.3 mph N/A   Clear
8:52 PM 63.7 °F 38.7 °F 40% 29.93 in 10.0 mi North 10.4 mph - N/A   Clear
9:12 PM 63.3 °F 38.7 °F 40% 29.93 in 10.0 mi North 9.2 mph 17.3 mph N/A   Clear
9:32 PM 62.6 °F 39.2 °F 42% 29.94 in 10.0 mi North 6.9 mph - N/A   Clear
9:52 PM 61.7 °F 39.2 °F 43% 29.94 in 10.0 mi North 6.9 mph - N/A   Clear
10:12 PM 60.8 °F 39.7 °F 46% 29.94 in 10.0 mi North 6.9 mph - N/A   Clear
10:32 PM 60.1 °F 39.7 °F 47% 29.94 in 10.0 mi North 6.9 mph - N/A   Clear
11:12 PM 58.6 °F 39.9 °F 50% 29.94 in 10.0 mi North 5.8 mph - N/A   Clear
11:32 PM 57.6 °F 39.7 °F 51% 29.94 in 10.0 mi North 5.8 mph - N/A   Clear
11:52 PM 57.2 °F 40.1 °F 53% 29.94 in 10.0 mi North 5.8 mph - N/A   Clear